PORT of BASTIA

国家: France 国家: France (FR)
纬度/经度: 42.69867° / 9.4534155° 在地图中显示 在地图中显示
本地时间:  UTC +2
UN/LOCODE: FRBIA
当前港口内的船只: 1
预期到达: 2

最新到达和离开


船只名称
到达 (UTC)
到达 (LT)
离开 (UTC)
离开 (LT)
Vessel Type: 驳船,领航  PILOTINE H 2014-10-20 21:03:00 2014-10-20 23:03:00
Vessel Type: 驳船,领航  PILOTINE H 2014-10-20 18:08:00 2014-10-20 20:08:00 2014-10-20 21:02:00 2014-10-20 23:02:00
Vessel Type: 客轮  MEGA EXPRESS FOUR 2014-10-20 16:20:00 2014-10-20 18:20:00 2014-10-20 21:00:00 2014-10-20 23:00:00
Vessel Type: 驳船,领航  PILOTINE H 2014-10-20 16:48:00 2014-10-20 18:48:00 2014-10-20 18:05:00 2014-10-20 20:05:00
Vessel Type: 客轮  MEGA SMERALDA 2014-10-20 06:00:00 2014-10-20 08:00:00 2014-10-20 18:05:00 2014-10-20 20:05:00
Vessel Type: 客轮  PIANA 2014-10-20 05:10:00 2014-10-20 07:10:00 2014-10-20 16:42:00 2014-10-20 18:42:00
Vessel Type: 驳船,领航  PILOTINE H 2014-10-20 16:18:00 2014-10-20 18:18:00 2014-10-20 16:42:00 2014-10-20 18:42:00
Vessel Type: 驳船,领航  PILOTINE H 2014-10-20 05:55:00 2014-10-20 07:55:00 2014-10-20 16:04:00 2014-10-20 18:04:00
Vessel Type: 钓鱼  CODITREMULLA 2014-10-20 15:28:00 2014-10-20 17:28:00
Vessel Type: 驳船,领航  PILOTINE H 2014-10-20 05:55:00 2014-10-20 07:55:00 2014-10-20 06:21:00 2014-10-20 08:21:00

预期到达


船只名称
Scheduled Arrival (UTC)
计划抵达(本地时)
预计到达时间 (UTC)
预计到达时间(本地)
Vessel Type: 客轮  PASCAL PAOLI 2014-10-21 04:40:00 2014-10-21 06:40:00 2014-10-21 04:53:00 2014-10-21 06:53:00
Vessel Type: 客轮  MEGA EXPRESS 2014-10-21 05:00:00 2014-10-21 07:00:00 2014-10-21 04:34:00 2014-10-21 06:34:00

Wind Forecast


    
时间(UTC)
航速
Direction
Temperature
2014-10-20 21:00:00 5 knots 211° 21°C
2014-10-21 00:00:00 6 knots 252° 21°C
2014-10-21 03:00:00 7 knots 250° 21°C
2014-10-21 06:00:00 10 knots 243° 21°C
2014-10-21 09:00:00 13 knots 247° 22°C
2014-10-21 12:00:00 14 knots 250° 23°C
2014-10-21 15:00:00 18 knots 267° 23°C
2014-10-21 18:00:00 19 knots 268° 23°C
2014-10-21 21:00:00 25 knots 292° 23°C
2014-10-22 00:00:00 30 knots 299° 22°C
2014-10-22 03:00:00 31 knots 344° 22°C
2014-10-22 06:00:00 29 knots 358° 19°C
2014-10-22 09:00:00 31 knots 352° 18°C
2014-10-22 12:00:00 33 knots 345° 18°C
2014-10-22 15:00:00 32 knots 343° 18°C
2014-10-22 18:00:00 32 knots 346° 18°C
2014-10-22 21:00:00 30 knots 342° 17°C